Location: Schommer Observatory
(40.5200°N, 74.4500°W)
Time: 08:43:44
(UTC-04:00)

X-37B - Pass Details

Date: 14 October 2017
Orbit: 259 x 286 km, 43.2° (Epoch: 06 October)

Event Time Altitude Azimuth Distance (km) Brightness Sun altitude
Exits shadow 06:37:08 - 282° (WNW) 1,064 3.6 -6.6°
Reaches altitude 10° 06:37:14 10° 282° (WNW) 1,025 3.5 -6.6°
Maximum altitude 06:39:25 39° 355° (N) 397 2.1 -6.2°
Drops below altitude 10° 06:41:37 10° 68° (ENE) 1,037 5.4 -5.8°
Sets 06:43:35 0° 77° (ENE) 1,844 7.1 -5.4°
